Jackson, MI

5:16 AM EDT on October 18, 2019 (GMT -0400)
Jackson County-Reynolds

Weather History for KJXN - May, 2019

Change the Weather History Date:

Wednesday, May 15, 2019

  Actual Average Record
Temperature  
Mean Temperature 58 °F 57 °F  
Max Temperature 74 °F 69 °F 89 °F (1962)
Min Temperature 41 °F 46 °F 34 °F (1964)
Degree Days  
Heating Degree Days 7 8  
Month to date heating degree days 180 155  
Since 1 July heating degree days 6577 6501  
Cooling Degree Days 0 1  
Month to date cooling degree days 0 8  
Year to date cooling degree days 0 14  
Growing Degree Days 8 (Base 50)    
Moisture  
Dew Point 42 °F    
Average Humidity 66    
Maximum Humidity 96    
Minimum Humidity 35    
Precipitation  
Precipitation 0.00 in 0.10 in 1.45 in (2001)
Month to date precipitation 1.17 1.53  
Year to date precipitation 9.41 8.82  
Sea Level Pressure  
Sea Level Pressure 29.95 in    
Wind  
Wind Speed 8 mph (WSW)    
Max Wind Speed 21 mph    
Max Gust Speed 28 mph    
Visibility 10 miles    
Events      
T = Trace of Precipitation, MM = Missing Value Source: NWS Daily Summary

Daily Weather History Graph

Daily Weather History Graph

Search for Another Location

Airport or City:

Astronomy

May. 15, 2019 Rise Set
Actual Time 6:16 AM EDT 8:52 PM EDT
Civil Twilight 5:44 AM EDT 9:24 PM EDT
Nautical Twilight 5:04 AM EDT 10:04 PM EDT
Astronomical Twilight 4:19 AM EDT 10:50 PM EDT
Moon 5:16 PM EDT (5/15) 4:48 AM EDT (5/15)
Length of Visible Light 15h 39m
Length of Day
14h 35m
Waxing Gibbous, 87% of the Moon is Illuminated
May 15
Waxing Gibbous
May 18
Full
May 26
Last Quarter
Jun 3
New
Jun 10
First Quarter

Hourly Weather History & Observations

Time (EDT) Temp. Windchill Dew Point Humidity Pressure Visibility Wind Dir Wind Speed Gust Speed Precip Events Conditions
12:56 AM 45.0 °F 42.6 °F 41.0 °F 86% 29.99 in 10.0 mi SW 4.6 mph - N/A   Clear
1:56 AM 44.1 °F 42.5 °F 41.0 °F 89% 29.98 in 10.0 mi SW 3.5 mph - N/A   Clear
2:56 AM 43.0 °F 40.3 °F 41.0 °F 93% 29.97 in 10.0 mi SW 4.6 mph - N/A   Clear
3:56 AM 44.1 °F - 39.9 °F 85% 29.97 in 10.0 mi Calm Calm - N/A   Clear
4:56 AM 42.1 °F - 39.9 °F 92% 29.97 in 10.0 mi Calm Calm - N/A   Clear
5:56 AM 42.1 °F - 39.0 °F 89% 29.96 in 10.0 mi Calm Calm - N/A   Clear
6:56 AM 42.1 °F - 39.0 °F 89% 29.98 in 10.0 mi Calm Calm - N/A   Clear
7:56 AM 50.0 °F - 43.0 °F 77% 29.98 in 10.0 mi WSW 3.5 mph - N/A   Clear
8:56 AM 57.9 °F - 39.9 °F 51% 29.98 in 10.0 mi WSW 9.2 mph - N/A   Clear
9:56 AM 62.1 °F - 41.0 °F 46% 29.98 in 10.0 mi WSW 8.1 mph - N/A   Overcast
10:56 AM 63.0 °F - 43.0 °F 48% 29.98 in 10.0 mi SW 6.9 mph - N/A   Overcast
11:56 AM 66.9 °F - 44.1 °F 44% 29.97 in 10.0 mi WSW 9.2 mph 18.4 mph N/A   Partly Cloudy
12:56 PM 70.0 °F - 43.0 °F 38% 29.95 in 10.0 mi WSW 13.8 mph - N/A   Scattered Clouds
1:56 PM 70.0 °F - 43.0 °F 38% 29.93 in 10.0 mi WSW 11.5 mph 18.4 mph N/A   Partly Cloudy
2:56 PM 71.1 °F - 43.0 °F 36% 29.91 in 10.0 mi SW 16.1 mph 26.5 mph N/A   Scattered Clouds
3:56 PM 72.0 °F - 44.1 °F 37% 29.90 in 10.0 mi SSW 17.3 mph 27.6 mph N/A   Scattered Clouds
4:56 PM 73.0 °F - 45.0 °F 37% 29.89 in 10.0 mi West 12.7 mph 21.9 mph N/A   Scattered Clouds
5:56 PM 70.0 °F - 43.0 °F 38% 29.90 in 10.0 mi WSW 13.8 mph 23.0 mph N/A   Mostly Cloudy
6:56 PM 71.1 °F - 43.0 °F 36% 29.90 in 10.0 mi West 15.0 mph 21.9 mph N/A   Partly Cloudy
7:56 PM 68.0 °F - 43.0 °F 40% 29.91 in 10.0 mi West 9.2 mph - N/A   Clear
8:56 PM 63.0 °F - 42.1 °F 46% 29.91 in 10.0 mi West 6.9 mph - N/A   Clear
9:56 PM 60.1 °F - 43.0 °F 53% 29.92 in 10.0 mi WSW 4.6 mph - N/A   Clear
10:56 PM 57.9 °F - 44.1 °F 60% 29.94 in 10.0 mi West 5.8 mph - N/A   Clear
11:56 PM 57.0 °F - 45.0 °F 64% 29.93 in 10.0 mi West 4.6 mph - N/A   Clear